Burlington, IA

5:03 PM CDT on August 20, 2017 (GMT -0500)
Burlington Regional

Weather History for KBRL - September, 2013

Change the Weather History Date:

Wednesday, September 11, 2013

  Actual Average Record
Temperature  
Mean Temperature 81 °F 69 °F  
Max Temperature 92 °F 80 °F 98 °F (1936)
Min Temperature 70 °F 59 °F 38 °F (1917)
Degree Days  
Heating Degree Days 0 1  
Month to date heating degree days 0 7  
Since 1 July heating degree days 11 11  
Cooling Degree Days 16 6  
Month to date cooling degree days 131 76  
Year to date cooling degree days 1032 1119  
Growing Degree Days 31 (Base 50)    
Moisture  
Dew Point 66 °F    
Average Humidity 66    
Maximum Humidity 87    
Minimum Humidity 44    
Precipitation  
Precipitation 0.17 in 0.12 in 1.22 in (1991)
Month to date precipitation 0.17 1.40  
Year to date precipitation 27.23 28.65  
Sea Level Pressure  
Sea Level Pressure 30.04 in    
Wind  
Wind Speed 6 mph (West)    
Max Wind Speed 17 mph    
Max Gust Speed 29 mph    
Visibility 8 miles    
Events Rain    
T = Trace of Precipitation, MM = Missing Value Source: NWS Daily Summary

Daily Weather History Graph

Daily Weather History Graph

Search for Another Location

Airport or City:

Trip Planner

Search our weather history database for the weather conditions in past years. The results will help you decide how hot, cold, wet, or windy it might be!

Date:

Astronomy

Sep. 11, 2013 Rise Set
Actual Time 6:41 AM CDT 7:19 PM CDT
Civil Twilight 6:13 AM CDT 7:47 PM CDT
Nautical Twilight 5:41 AM CDT 8:19 PM CDT
Astronomical Twilight 5:07 AM CDT 8:53 PM CDT
Moon 1:12 PM CDT (9/11) 11:13 PM CDT (9/11)
Length of Visible Light 13h 33m
Length of Day
12h 38m
Waxing Crescent, 39% of the Moon is Illuminated
Sep 11
Waxing Crescent
Sep 12
First Quarter
Sep 19
Full
Sep 26
Last Quarter
Oct 4
New

Hourly Weather History & Observations

Time (CDT) Temp. Heat Index Dew Point Humidity Pressure Visibility Wind Dir Wind Speed Gust Speed Precip Events Conditions
12:53 AM 75.9 °F - 64.0 °F 67% 30.01 in 10.0 mi SW 5.8 mph - N/A   Clear
1:53 AM 79.0 °F - 64.0 °F 60% 30.01 in 10.0 mi SW 6.9 mph - N/A   Clear
2:53 AM 77.0 °F - 63.0 °F 62% 30.02 in 9.0 mi SW 5.8 mph - N/A   Clear
3:53 AM 75.0 °F - 64.0 °F 69% 30.02 in 10.0 mi WSW 4.6 mph - N/A   Clear
4:53 AM 73.9 °F - 64.0 °F 71% 30.02 in 10.0 mi WSW 5.8 mph - N/A   Clear
5:53 AM 73.0 °F - 64.0 °F 73% 30.04 in 10.0 mi SW 5.8 mph - N/A   Clear
6:53 AM 72.0 °F - 64.0 °F 76% 30.05 in 3.0 mi SSW 6.9 mph - N/A   Haze
7:27 AM 73.4 °F - 64.4 °F 73% 30.08 in 2.5 mi WSW 3.5 mph - N/A   Haze
7:35 AM 73.4 °F - 64.4 °F 73% 30.09 in 6.0 mi WSW 3.5 mph - N/A   Haze
7:53 AM 75.0 °F - 64.9 °F 71% 30.07 in 10.0 mi WSW 4.6 mph - N/A   Scattered Clouds
8:53 AM 80.1 °F 82.1 °F 66.0 °F 62% 30.08 in 10.0 mi West 8.1 mph - N/A   Scattered Clouds
9:53 AM 84.0 °F 86.5 °F 66.9 °F 56% 30.07 in 10.0 mi West 3.5 mph - N/A   Clear
10:53 AM 86.0 °F 88.2 °F 66.0 °F 51% 30.07 in 10.0 mi SW 5.8 mph - N/A   Clear
11:53 AM 89.1 °F 91.3 °F 66.0 °F 46% 30.06 in 10.0 mi West 10.4 mph - N/A   Clear
12:53 PM 90.0 °F 91.7 °F 64.9 °F 43% 30.05 in 10.0 mi West 12.7 mph - N/A   Partly Cloudy
1:53 PM 87.1 °F 88.9 °F 64.9 °F 48% 30.05 in 10.0 mi NW 10.4 mph - N/A   Clear
2:53 PM 89.1 °F 91.3 °F 66.0 °F 46% 30.04 in 7.0 mi WNW 5.8 mph - N/A   Partly Cloudy
3:53 PM 86.0 °F 88.2 °F 66.0 °F 51% 30.04 in 8.0 mi NNW 11.5 mph - N/A   Clear
4:53 PM 79.0 °F - 66.9 °F 66% 30.03 in 10.0 mi NNW 9.2 mph - N/A   Mostly Cloudy
5:53 PM 78.1 °F - 69.1 °F 74% 30.02 in 9.0 mi NNW 4.6 mph - 0.00 in   Scattered Clouds
6:53 PM 77.0 °F - 69.1 °F 76% 30.02 in 9.0 mi NW 3.5 mph - N/A   Mostly Cloudy
7:53 PM 75.0 °F - 69.1 °F 82% 30.02 in 5.0 mi Calm Calm - N/A   Haze
8:53 PM 75.0 °F - 69.1 °F 82% 30.04 in 9.0 mi Calm Calm - N/A   Overcast
9:53 PM 73.9 °F - 69.1 °F 85% 30.04 in 4.0 mi Calm Calm - N/A   Haze
10:53 PM 73.9 °F - 70.0 °F 87% 30.04 in 10.0 mi West 3.5 mph - N/A   Mostly Cloudy
11:53 PM 73.0 °F - 70.0 °F 90% 30.05 in 9.0 mi WSW 11.5 mph - 0.00 in Rain Light Rain